Year,Month,Day,Hour,Minute,Value (Times are PST for temperature in C)
2009,04,05,00,00,2.80
2009,04,05,00,01,2.80
2009,04,05,00,02,2.80
2009,04,05,00,03,2.80
2009,04,05,00,04,2.80
2009,04,05,00,05,2.80
2009,04,05,00,06,2.80
2009,04,05,00,07,2.80
2009,04,05,00,08,2.80
2009,04,05,00,09,2.80
2009,04,05,00,10,2.80
2009,04,05,00,11,2.80
2009,04,05,00,12,2.80
2009,04,05,00,13,2.80
2009,04,05,00,14,2.80
2009,04,05,00,15,2.80
2009,04,05,00,16,2.70
2009,04,05,00,17,2.70
2009,04,05,00,18,2.70
2009,04,05,00,19,2.70
2009,04,05,00,20,2.70
2009,04,05,00,21,2.70
2009,04,05,00,22,2.70
2009,04,05,00,23,2.70
2009,04,05,00,24,2.70
2009,04,05,00,25,2.70
2009,04,05,00,26,2.70
2009,04,05,00,27,2.70
2009,04,05,00,28,2.70
2009,04,05,00,29,2.70
2009,04,05,00,30,2.70
2009,04,05,00,31,2.60
2009,04,05,00,32,2.60
2009,04,05,00,33,2.60
2009,04,05,00,34,2.60
2009,04,05,00,35,2.60
2009,04,05,00,36,2.60
2009,04,05,00,37,2.60
2009,04,05,00,38,2.60
2009,04,05,00,39,2.50
2009,04,05,00,40,2.50
2009,04,05,00,41,2.50
2009,04,05,00,42,2.50
2009,04,05,00,43,2.50
2009,04,05,00,44,2.50
2009,04,05,00,45,2.40
2009,04,05,00,46,2.40
2009,04,05,00,47,2.40
2009,04,05,00,48,2.40
2009,04,05,00,49,2.40
2009,04,05,00,50,2.40
2009,04,05,00,51,2.30
2009,04,05,00,52,2.30
2009,04,05,00,53,2.30
2009,04,05,00,54,2.30
2009,04,05,00,55,2.30
2009,04,05,00,56,2.30
2009,04,05,00,57,2.30
2009,04,05,00,58,2.20
2009,04,05,00,59,2.20
2009,04,05,01,00,2.20
2009,04,05,01,01,2.20
2009,04,05,01,02,2.20
2009,04,05,01,03,2.20
2009,04,05,01,04,2.20
2009,04,05,01,05,2.20
2009,04,05,01,06,2.20
2009,04,05,01,07,2.10
2009,04,05,01,08,2.10
2009,04,05,01,09,2.10
2009,04,05,01,10,2.10
2009,04,05,01,11,2.10
2009,04,05,01,12,2.10
2009,04,05,01,13,2.10
2009,04,05,01,14,2.00
2009,04,05,01,15,2.00
2009,04,05,01,16,2.00
2009,04,05,01,17,2.00
2009,04,05,01,18,2.00
2009,04,05,01,19,1.90
2009,04,05,01,20,1.90
2009,04,05,01,21,1.90
2009,04,05,01,22,1.90
2009,04,05,01,23,1.90
2009,04,05,01,24,1.90
2009,04,05,01,25,1.90
2009,04,05,01,26,1.90
2009,04,05,01,27,1.80
2009,04,05,01,28,1.80
2009,04,05,01,29,1.80
2009,04,05,01,30,1.80
2009,04,05,01,31,1.80
2009,04,05,01,32,1.80
2009,04,05,01,33,1.80
2009,04,05,01,34,1.80
2009,04,05,01,35,1.80
2009,04,05,01,36,1.80
2009,04,05,01,37,1.70
2009,04,05,01,38,1.70
2009,04,05,01,39,1.70
2009,04,05,01,40,1.70
2009,04,05,01,41,1.70
2009,04,05,01,42,1.70
2009,04,05,01,43,1.70
2009,04,05,01,44,1.60
2009,04,05,01,45,1.60
2009,04,05,01,46,1.60
2009,04,05,01,47,1.60
2009,04,05,01,48,1.60
2009,04,05,01,49,1.60
2009,04,05,01,50,1.60
2009,04,05,01,51,1.60
2009,04,05,01,52,1.50
2009,04,05,01,53,1.50
2009,04,05,01,54,1.50
2009,04,05,01,55,1.50
2009,04,05,01,56,1.50
2009,04,05,01,57,1.40
2009,04,05,01,58,1.40
2009,04,05,01,59,1.40
2009,04,05,02,00,1.40
2009,04,05,02,01,1.40
2009,04,05,02,02,1.40
2009,04,05,02,03,1.40
2009,04,05,02,04,1.40
2009,04,05,02,05,1.40
2009,04,05,02,06,1.40
2009,04,05,02,07,1.30
2009,04,05,02,08,1.30
2009,04,05,02,09,1.30
2009,04,05,02,10,1.30
2009,04,05,02,11,1.30
2009,04,05,02,12,1.30
2009,04,05,02,13,1.30
2009,04,05,02,14,1.30
2009,04,05,02,15,1.30
2009,04,05,02,16,1.30
2009,04,05,02,17,1.30
2009,04,05,02,18,1.30
2009,04,05,02,19,1.30
2009,04,05,02,20,1.30
2009,04,05,02,21,1.30
2009,04,05,02,22,1.30
2009,04,05,02,23,1.30
2009,04,05,02,24,1.30
2009,04,05,02,25,1.30
2009,04,05,02,26,1.30
2009,04,05,02,27,1.30
2009,04,05,02,28,1.30
2009,04,05,02,29,1.30
2009,04,05,02,30,1.30
2009,04,05,02,31,1.30
2009,04,05,02,32,1.30
2009,04,05,02,33,1.20
2009,04,05,02,34,1.20
2009,04,05,02,35,1.20
2009,04,05,02,36,1.20
2009,04,05,02,37,1.20
2009,04,05,02,38,1.20
2009,04,05,02,39,1.20
2009,04,05,02,40,1.20
2009,04,05,02,41,1.20
2009,04,05,02,42,1.20
2009,04,05,02,43,1.20
2009,04,05,02,44,1.20
2009,04,05,02,45,1.20
2009,04,05,02,46,1.20
2009,04,05,02,47,1.20
2009,04,05,02,48,1.20
2009,04,05,02,49,1.20
2009,04,05,02,50,1.20
2009,04,05,02,51,1.20
2009,04,05,02,52,1.20
2009,04,05,02,53,1.20
2009,04,05,02,54,1.20
2009,04,05,02,55,1.10
2009,04,05,02,56,1.10
2009,04,05,02,57,1.10
2009,04,05,02,58,1.10
2009,04,05,02,59,1.10
2009,04,05,03,00,1.10
2009,04,05,03,01,1.10
2009,04,05,03,02,1.10
2009,04,05,03,03,1.00
2009,04,05,03,04,1.00
2009,04,05,03,05,1.00
2009,04,05,03,06,1.00
2009,04,05,03,07,1.00
2009,04,05,03,08,0.90
2009,04,05,03,09,0.90
2009,04,05,03,10,0.90
2009,04,05,03,11,0.90
2009,04,05,03,12,0.90
2009,04,05,03,13,0.90
2009,04,05,03,14,0.80
2009,04,05,03,15,0.80
2009,04,05,03,16,0.80
2009,04,05,03,17,0.80
2009,04,05,03,18,0.80
2009,04,05,03,19,0.80
2009,04,05,03,20,0.80
2009,04,05,03,21,0.80
2009,04,05,03,22,0.70
2009,04,05,03,23,0.70
2009,04,05,03,24,0.70
2009,04,05,03,25,0.70
2009,04,05,03,26,0.70
2009,04,05,03,27,0.70
2009,04,05,03,28,0.70
2009,04,05,03,29,0.70
2009,04,05,03,30,0.70
2009,04,05,03,31,0.70
2009,04,05,03,32,0.60
2009,04,05,03,33,0.60
2009,04,05,03,34,0.60
2009,04,05,03,35,0.60
2009,04,05,03,36,0.60
2009,04,05,03,37,0.60
2009,04,05,03,38,0.60
2009,04,05,03,39,0.60
2009,04,05,03,40,0.60
2009,04,05,03,41,0.60
2009,04,05,03,42,0.60
2009,04,05,03,43,0.60
2009,04,05,03,44,0.60
2009,04,05,03,45,0.60
2009,04,05,03,46,0.60
2009,04,05,03,47,0.60
2009,04,05,03,48,0.60
2009,04,05,03,49,0.50
2009,04,05,03,50,0.50
2009,04,05,03,51,0.50
2009,04,05,03,52,0.50
2009,04,05,03,53,0.50
2009,04,05,03,54,0.50
2009,04,05,03,55,0.50
2009,04,05,03,56,0.50
2009,04,05,03,57,0.50
2009,04,05,03,58,0.50
2009,04,05,03,59,0.50
2009,04,05,04,00,0.50
2009,04,05,04,01,0.50
2009,04,05,04,02,0.50
2009,04,05,04,03,0.50
2009,04,05,04,04,0.50
2009,04,05,04,05,0.40
2009,04,05,04,06,0.40
2009,04,05,04,07,0.40
2009,04,05,04,08,0.40
2009,04,05,04,09,0.40
2009,04,05,04,10,0.40
2009,04,05,04,11,0.40
2009,04,05,04,12,0.40
2009,04,05,04,13,0.40
2009,04,05,04,14,0.40
2009,04,05,04,15,0.30
2009,04,05,04,16,0.30
2009,04,05,04,17,0.30
2009,04,05,04,18,0.30
2009,04,05,04,19,0.30
2009,04,05,04,20,0.30
2009,04,05,04,21,0.30
2009,04,05,04,22,0.30
2009,04,05,04,23,0.30
2009,04,05,04,24,0.30
2009,04,05,04,25,0.30
2009,04,05,04,26,0.30
2009,04,05,04,27,0.30
2009,04,05,04,28,0.30
2009,04,05,04,29,0.30
2009,04,05,04,30,0.20
2009,04,05,04,31,0.20
2009,04,05,04,32,0.20
2009,04,05,04,33,0.20
2009,04,05,04,34,0.20
2009,04,05,04,35,0.20
2009,04,05,04,36,0.20
2009,04,05,04,37,0.20
2009,04,05,04,38,0.20
2009,04,05,04,39,0.10
2009,04,05,04,40,0.10
2009,04,05,04,41,0.10
2009,04,05,04,42,0.10
2009,04,05,04,43,0.10
2009,04,05,04,44,0.10
2009,04,05,04,45,0.10
2009,04,05,04,46,0.10
2009,04,05,04,47,0.10
2009,04,05,04,48,0.00
2009,04,05,04,49,0.00
2009,04,05,04,50,0.00
2009,04,05,04,51,0.00
2009,04,05,04,52,0.00
2009,04,05,04,53,0.00
2009,04,05,04,54,-0.10
2009,04,05,04,55,-0.10
2009,04,05,04,56,-0.10
2009,04,05,04,57,-0.10
2009,04,05,04,58,-0.10
2009,04,05,04,59,-0.10
2009,04,05,05,00,-0.10
2009,04,05,05,01,-0.10
2009,04,05,05,02,-0.10
2009,04,05,05,03,-0.10
2009,04,05,05,04,-0.10
2009,04,05,05,05,-0.10
2009,04,05,05,06,-0.10
2009,04,05,05,07,-0.10
2009,04,05,05,08,0.00
2009,04,05,05,09,0.00
2009,04,05,05,10,0.00
2009,04,05,05,11,0.00
2009,04,05,05,12,0.00
2009,04,05,05,13,0.10
2009,04,05,05,14,0.10
2009,04,05,05,15,0.10
2009,04,05,05,16,0.10
2009,04,05,05,17,0.10
2009,04,05,05,18,0.20
2009,04,05,05,19,0.20
2009,04,05,05,20,0.20
2009,04,05,05,21,0.20
2009,04,05,05,22,0.20
2009,04,05,05,23,0.20
2009,04,05,05,24,0.20
2009,04,05,05,25,0.20
2009,04,05,05,26,0.20
2009,04,05,05,27,0.20
2009,04,05,05,28,0.20
2009,04,05,05,29,0.20
2009,04,05,05,30,0.20
2009,04,05,05,31,0.20
2009,04,05,05,32,0.20
2009,04,05,05,33,0.10
2009,04,05,05,34,0.10
2009,04,05,05,35,0.10
2009,04,05,05,36,0.10
2009,04,05,05,37,0.10
2009,04,05,05,38,0.10
2009,04,05,05,39,0.10
2009,04,05,05,40,0.10
2009,04,05,05,41,0.10
2009,04,05,05,42,0.10
2009,04,05,05,43,0.10
2009,04,05,05,44,0.10
2009,04,05,05,45,0.10
2009,04,05,05,46,0.10
2009,04,05,05,47,0.00
2009,04,05,05,48,0.00
2009,04,05,05,49,0.00
2009,04,05,05,50,0.00
2009,04,05,05,51,0.00
2009,04,05,05,52,-0.10
2009,04,05,05,53,-0.10
2009,04,05,05,54,-0.10
2009,04,05,05,55,-0.10
2009,04,05,05,56,-0.10
2009,04,05,05,57,-0.10
2009,04,05,05,58,-0.10
2009,04,05,05,59,-0.10
2009,04,05,06,00,-0.10
2009,04,05,06,01,-0.10
2009,04,05,06,02,-0.10
2009,04,05,06,03,-0.10
2009,04,05,06,04,-0.10
2009,04,05,06,05,-0.10
2009,04,05,06,06,-0.10
2009,04,05,06,07,-0.10
2009,04,05,06,08,-0.10
2009,04,05,06,09,-0.10
2009,04,05,06,10,-0.10
2009,04,05,06,11,-0.10
2009,04,05,06,12,-0.10
2009,04,05,06,13,-0.10
2009,04,05,06,14,-0.10
2009,04,05,06,15,-0.10
2009,04,05,06,16,-0.10
2009,04,05,06,17,-0.10
2009,04,05,06,18,-0.10
2009,04,05,06,19,-0.10
2009,04,05,06,20,-0.10
2009,04,05,06,21,-0.10
2009,04,05,06,22,-0.10
2009,04,05,06,23,-0.10
2009,04,05,06,24,-0.10
2009,04,05,06,25,-0.10
2009,04,05,06,26,-0.10
2009,04,05,06,27,-0.10
2009,04,05,06,28,-0.10
2009,04,05,06,29,-0.10
2009,04,05,06,30,-0.10
2009,04,05,06,31,-0.10
2009,04,05,06,32,-0.20
2009,04,05,06,33,-0.20
2009,04,05,06,34,-0.20
2009,04,05,06,35,-0.20
2009,04,05,06,36,-0.20
2009,04,05,06,37,-0.20
2009,04,05,06,38,-0.20
2009,04,05,06,39,-0.20
2009,04,05,06,40,-0.20
2009,04,05,06,41,-0.20
2009,04,05,06,42,-0.20
2009,04,05,06,43,-0.20
2009,04,05,06,44,-0.20
2009,04,05,06,45,-0.20
2009,04,05,06,46,-0.20
2009,04,05,06,47,-0.20
2009,04,05,06,48,-0.20
2009,04,05,06,49,-0.20
2009,04,05,06,50,-0.20
2009,04,05,06,51,-0.30
2009,04,05,06,52,-0.30
2009,04,05,06,53,-0.30
2009,04,05,06,54,-0.30
2009,04,05,06,55,-0.30
2009,04,05,06,56,-0.30
2009,04,05,06,57,-0.30
2009,04,05,06,58,-0.30
2009,04,05,06,59,-0.30
2009,04,05,07,00,-0.30
2009,04,05,07,01,-0.30
2009,04,05,07,02,-0.30
2009,04,05,07,03,-0.40
2009,04,05,07,04,-0.40
2009,04,05,07,05,-0.40
2009,04,05,07,06,-0.40
2009,04,05,07,07,-0.40
2009,04,05,07,08,-0.40
2009,04,05,07,09,-0.40
2009,04,05,07,10,-0.40
2009,04,05,07,11,-0.40
2009,04,05,07,12,-0.40
2009,04,05,07,13,-0.40
2009,04,05,07,14,-0.40
2009,04,05,07,15,-0.40
2009,04,05,07,16,-0.40
2009,04,05,07,17,-0.40
2009,04,05,07,18,-0.40
2009,04,05,07,19,-0.40
2009,04,05,07,20,-0.40
2009,04,05,07,21,-0.40
2009,04,05,07,22,-0.40
2009,04,05,07,23,-0.40
2009,04,05,07,24,-0.40
2009,04,05,07,25,-0.30
2009,04,05,07,26,-0.30
2009,04,05,07,27,-0.30
2009,04,05,07,28,-0.30
2009,04,05,07,29,-0.30
2009,04,05,07,30,-0.30
2009,04,05,07,31,-0.30
2009,04,05,07,32,-0.30
2009,04,05,07,33,-0.20
2009,04,05,07,34,-0.20
2009,04,05,07,35,-0.20
2009,04,05,07,36,-0.20
2009,04,05,07,37,-0.20
2009,04,05,07,38,-0.20
2009,04,05,07,39,-0.20
2009,04,05,07,40,-0.10
2009,04,05,07,41,-0.10
2009,04,05,07,42,-0.10
2009,04,05,07,43,-0.10
2009,04,05,07,44,-0.10
2009,04,05,07,45,0.00
2009,04,05,07,46,0.00
2009,04,05,07,47,0.00
2009,04,05,07,48,0.10
2009,04,05,07,49,0.10
2009,04,05,07,50,0.10
2009,04,05,07,51,0.10
2009,04,05,07,52,0.10
2009,04,05,07,53,0.10
2009,04,05,07,54,0.20
2009,04,05,07,55,0.20
2009,04,05,07,56,0.20
2009,04,05,07,57,0.20
2009,04,05,07,58,0.30
2009,04,05,07,59,0.30
2009,04,05,08,00,0.30
2009,04,05,08,01,0.30
2009,04,05,08,02,0.40
2009,04,05,08,03,0.40
2009,04,05,08,04,0.40
2009,04,05,08,05,0.50
2009,04,05,08,06,0.50
2009,04,05,08,07,0.50
2009,04,05,08,08,0.60
2009,04,05,08,09,0.60
2009,04,05,08,10,0.60
2009,04,05,08,11,0.60
2009,04,05,08,12,0.70
2009,04,05,08,13,0.70
2009,04,05,08,14,0.70
2009,04,05,08,15,0.70
2009,04,05,08,16,0.80
2009,04,05,08,17,0.80
2009,04,05,08,18,0.80
2009,04,05,08,19,0.90
2009,04,05,08,20,0.90
2009,04,05,08,21,0.90
2009,04,05,08,22,1.00
2009,04,05,08,23,1.00
2009,04,05,08,24,1.10
2009,04,05,08,25,1.10
2009,04,05,08,26,1.20
2009,04,05,08,27,1.20
2009,04,05,08,28,1.30
2009,04,05,08,29,1.30
2009,04,05,08,30,1.30
2009,04,05,08,31,1.30
2009,04,05,08,32,1.30
2009,04,05,08,33,1.30
2009,04,05,08,34,1.30
2009,04,05,08,35,1.40
2009,04,05,08,36,1.40
2009,04,05,08,37,1.50
2009,04,05,08,38,1.50
2009,04,05,08,39,1.60
2009,04,05,08,40,1.60
2009,04,05,08,41,1.70
2009,04,05,08,42,1.70
2009,04,05,08,43,1.70
2009,04,05,08,44,1.70
2009,04,05,08,45,1.80
2009,04,05,08,46,1.80
2009,04,05,08,47,1.80
2009,04,05,08,48,1.90
2009,04,05,08,49,1.90
2009,04,05,08,50,1.90
2009,04,05,08,51,2.00
2009,04,05,08,52,2.00
2009,04,05,08,53,2.10
2009,04,05,08,54,2.10
2009,04,05,08,55,2.20
2009,04,05,08,56,2.20
2009,04,05,08,57,2.30
2009,04,05,08,58,2.30
2009,04,05,08,59,2.30
2009,04,05,09,00,2.40
2009,04,05,09,01,2.40
2009,04,05,09,02,2.50
2009,04,05,09,03,2.60
2009,04,05,09,04,2.60
2009,04,05,09,05,2.70
2009,04,05,09,06,2.70
2009,04,05,09,07,2.80
2009,04,05,09,08,2.80
2009,04,05,09,09,2.80
2009,04,05,09,10,2.90
2009,04,05,09,11,2.90
2009,04,05,09,12,3.00
2009,04,05,09,13,3.10
2009,04,05,09,14,3.10
2009,04,05,09,15,3.20
2009,04,05,09,16,3.20
2009,04,05,09,17,3.30
2009,04,05,09,18,3.30
2009,04,05,09,19,3.40
2009,04,05,09,20,3.40
2009,04,05,09,21,3.50
2009,04,05,09,22,3.60
2009,04,05,09,23,3.60
2009,04,05,09,24,3.60
2009,04,05,09,25,3.70
2009,04,05,09,26,3.80
2009,04,05,09,27,3.80
2009,04,05,09,28,3.80
2009,04,05,09,29,3.90
2009,04,05,09,30,4.00
2009,04,05,09,31,4.00
2009,04,05,09,32,4.10
2009,04,05,09,33,4.10
2009,04,05,09,34,4.20
2009,04,05,09,35,4.20
2009,04,05,09,36,4.30
2009,04,05,09,37,4.30
2009,04,05,09,38,4.40
2009,04,05,09,39,4.40
2009,04,05,09,40,4.50
2009,04,05,09,41,4.60
2009,04,05,09,42,4.60
2009,04,05,09,43,4.70
2009,04,05,09,44,4.70
2009,04,05,09,45,4.80
2009,04,05,09,46,4.80
2009,04,05,09,47,4.90
2009,04,05,09,48,5.00
2009,04,05,09,49,5.00
2009,04,05,09,50,5.10
2009,04,05,09,51,5.10
2009,04,05,09,52,5.20
2009,04,05,09,53,5.30
2009,04,05,09,54,5.30
2009,04,05,09,55,5.40
2009,04,05,09,56,5.40
2009,04,05,09,57,5.50
2009,04,05,09,58,5.60
2009,04,05,09,59,5.70
2009,04,05,10,00,5.80
2009,04,05,10,01,5.90
2009,04,05,10,02,6.00
2009,04,05,10,03,6.10
2009,04,05,10,04,6.20
2009,04,05,10,05,6.30
2009,04,05,10,06,6.40
2009,04,05,10,07,6.50
2009,04,05,10,08,6.60
2009,04,05,10,09,6.70
2009,04,05,10,10,6.80
2009,04,05,10,11,6.90
2009,04,05,10,12,7.10
2009,04,05,10,13,7.20
2009,04,05,10,14,7.30
2009,04,05,10,15,7.40
2009,04,05,10,16,7.50
2009,04,05,10,17,7.60
2009,04,05,10,18,7.70
2009,04,05,10,19,7.80
2009,04,05,10,20,7.90
2009,04,05,10,21,8.00
2009,04,05,10,22,8.20
2009,04,05,10,23,8.20
2009,04,05,10,24,8.30
2009,04,05,10,25,8.40
2009,04,05,10,26,8.50
2009,04,05,10,27,8.60
2009,04,05,10,28,8.70
2009,04,05,10,29,8.80
2009,04,05,10,30,8.80
2009,04,05,10,31,8.90
2009,04,05,10,32,9.00
2009,04,05,10,33,9.00
2009,04,05,10,34,9.10
2009,04,05,10,35,9.10
2009,04,05,10,36,9.20
2009,04,05,10,37,9.30
2009,04,05,10,38,9.30
2009,04,05,10,39,9.30
2009,04,05,10,40,9.40
2009,04,05,10,41,9.40
2009,04,05,10,42,9.50
2009,04,05,10,43,9.60
2009,04,05,10,44,9.60
2009,04,05,10,45,9.60
2009,04,05,10,46,9.60
2009,04,05,10,47,9.70
2009,04,05,10,48,9.70
2009,04,05,10,49,9.70
2009,04,05,10,50,9.80
2009,04,05,10,51,9.80
2009,04,05,10,52,9.90
2009,04,05,10,53,9.90
2009,04,05,10,54,10.00
2009,04,05,10,55,10.00
2009,04,05,10,56,10.10
2009,04,05,10,57,10.10
2009,04,05,10,58,10.10
2009,04,05,10,59,10.20
2009,04,05,11,00,10.20
2009,04,05,11,01,10.30
2009,04,05,11,02,10.30
2009,04,05,11,03,10.40
2009,04,05,11,04,10.40
2009,04,05,11,05,10.50
2009,04,05,11,06,10.50
2009,04,05,11,07,10.60
2009,04,05,11,08,10.60
2009,04,05,11,09,10.60
2009,04,05,11,10,10.50
2009,04,05,11,11,10.50
2009,04,05,11,12,10.60
2009,04,05,11,13,10.60
2009,04,05,11,14,10.60
2009,04,05,11,15,10.60
2009,04,05,11,16,10.70
2009,04,05,11,17,10.70
2009,04,05,11,18,10.70
2009,04,05,11,19,10.80
2009,04,05,11,20,10.80
2009,04,05,11,21,10.80
2009,04,05,11,22,10.80
2009,04,05,11,23,10.90
2009,04,05,11,24,10.90
2009,04,05,11,25,11.00
2009,04,05,11,26,11.00
2009,04,05,11,27,11.00
2009,04,05,11,28,11.00
2009,04,05,11,29,11.10
2009,04,05,11,30,11.10
2009,04,05,11,31,11.00
2009,04,05,11,32,11.00
2009,04,05,11,33,11.00
2009,04,05,11,34,11.10
2009,04,05,11,35,11.10
2009,04,05,11,36,11.10
2009,04,05,11,37,11.10
2009,04,05,11,38,11.10
2009,04,05,11,39,11.20
2009,04,05,11,40,11.30
2009,04,05,11,41,11.30
2009,04,05,11,42,11.30
2009,04,05,11,43,11.30
2009,04,05,11,44,11.40
2009,04,05,11,45,11.40
2009,04,05,11,46,11.40
2009,04,05,11,47,11.30
2009,04,05,11,48,11.30
2009,04,05,11,49,11.30
2009,04,05,11,50,11.30
2009,04,05,11,51,11.40
2009,04,05,11,52,11.40
2009,04,05,11,53,11.40
2009,04,05,11,54,11.50
2009,04,05,11,55,11.50
2009,04,05,11,56,11.60
2009,04,05,11,57,11.60
2009,04,05,11,58,11.60
2009,04,05,11,59,11.60
2009,04,05,12,00,11.70
2009,04,05,12,01,11.70
2009,04,05,12,02,11.70
2009,04,05,12,03,11.70
2009,04,05,12,04,11.70
2009,04,05,12,05,11.80
2009,04,05,12,06,11.80
2009,04,05,12,07,11.80
2009,04,05,12,08,11.80
2009,04,05,12,09,11.80
2009,04,05,12,10,11.80
2009,04,05,12,11,11.80
2009,04,05,12,12,11.80
2009,04,05,12,13,11.90
2009,04,05,12,14,11.90
2009,04,05,12,15,12.00
2009,04,05,12,16,12.00
2009,04,05,12,17,12.10
2009,04,05,12,18,12.10
2009,04,05,12,19,12.20
2009,04,05,12,20,12.20
2009,04,05,12,21,12.30
2009,04,05,12,22,12.40
2009,04,05,12,23,12.50
2009,04,05,12,24,12.50
2009,04,05,12,25,12.60
2009,04,05,12,26,12.70
2009,04,05,12,27,12.70
2009,04,05,12,28,12.70
2009,04,05,12,29,12.70
2009,04,05,12,30,12.80
2009,04,05,12,31,12.80
2009,04,05,12,32,12.80
2009,04,05,12,33,12.70
2009,04,05,12,34,12.70
2009,04,05,12,35,12.70
2009,04,05,12,36,12.70
2009,04,05,12,37,12.70
2009,04,05,12,38,12.80
2009,04,05,12,39,12.80
2009,04,05,12,40,12.80
2009,04,05,12,41,12.90
2009,04,05,12,42,13.00
2009,04,05,12,43,13.00
2009,04,05,12,44,13.00
2009,04,05,12,45,13.10
2009,04,05,12,46,13.10
2009,04,05,12,47,13.10
2009,04,05,12,48,13.20
2009,04,05,12,49,13.30
2009,04,05,12,50,13.30
2009,04,05,12,51,13.40
2009,04,05,12,52,13.40
2009,04,05,12,53,13.50
2009,04,05,12,54,13.50
2009,04,05,12,55,13.60
2009,04,05,12,56,13.60
2009,04,05,12,57,13.70
2009,04,05,12,58,13.70
2009,04,05,12,59,13.80
2009,04,05,13,00,13.80
2009,04,05,13,01,13.80
2009,04,05,13,02,13.90
2009,04,05,13,03,14.00
2009,04,05,13,04,14.00
2009,04,05,13,05,14.10
2009,04,05,13,06,14.10
2009,04,05,13,07,14.10
2009,04,05,13,08,14.20
2009,04,05,13,09,14.20
2009,04,05,13,10,14.20
2009,04,05,13,11,14.20
2009,04,05,13,12,14.20
2009,04,05,13,13,14.30
2009,04,05,13,14,14.40
2009,04,05,13,15,14.40
2009,04,05,13,16,14.40
2009,04,05,13,17,14.40
2009,04,05,13,18,14.40
2009,04,05,13,19,14.40
2009,04,05,13,20,14.40
2009,04,05,13,21,14.30
2009,04,05,13,22,14.30
2009,04,05,13,23,14.30
2009,04,05,13,24,14.30
2009,04,05,13,25,14.30
2009,04,05,13,26,14.30
2009,04,05,13,27,14.40
2009,04,05,13,28,14.50
2009,04,05,13,29,14.50
2009,04,05,13,30,14.60
2009,04,05,13,31,14.60
2009,04,05,13,32,14.60
2009,04,05,13,33,14.70
2009,04,05,13,34,14.70
2009,04,05,13,35,14.70
2009,04,05,13,36,14.70
2009,04,05,13,37,14.70
2009,04,05,13,38,14.60
2009,04,05,13,39,14.60
2009,04,05,13,40,14.60
2009,04,05,13,41,14.60
2009,04,05,13,42,14.70
2009,04,05,13,43,14.70
2009,04,05,13,44,14.70
2009,04,05,13,45,14.80
2009,04,05,13,46,14.80
2009,04,05,13,47,14.70
2009,04,05,13,48,14.70
2009,04,05,13,49,14.70
2009,04,05,13,50,14.70
2009,04,05,13,51,14.60
2009,04,05,13,52,14.60
2009,04,05,13,53,14.60
2009,04,05,13,54,14.60
2009,04,05,13,55,14.70
2009,04,05,13,56,14.70
2009,04,05,13,57,14.80
2009,04,05,13,58,14.80
2009,04,05,13,59,14.80
2009,04,05,14,00,14.80
2009,04,05,14,01,14.90
2009,04,05,14,02,15.00
2009,04,05,14,03,15.00
2009,04,05,14,04,15.00
2009,04,05,14,05,15.00
2009,04,05,14,06,15.10
2009,04,05,14,07,15.20
2009,04,05,14,08,15.30
2009,04,05,14,09,15.30
2009,04,05,14,10,15.20
2009,04,05,14,11,15.10
2009,04,05,14,12,15.10
2009,04,05,14,13,15.10
2009,04,05,14,14,15.10
2009,04,05,14,15,15.20
2009,04,05,14,16,15.20
2009,04,05,14,17,15.10
2009,04,05,14,18,15.10
2009,04,05,14,19,15.20
2009,04,05,14,20,15.20
2009,04,05,14,21,15.20
2009,04,05,14,22,15.20
2009,04,05,14,23,15.10
2009,04,05,14,24,15.00
2009,04,05,14,25,15.00
2009,04,05,14,26,15.00
2009,04,05,14,27,15.00
2009,04,05,14,28,15.00
2009,04,05,14,29,15.00
2009,04,05,14,30,15.00
2009,04,05,14,31,15.00
2009,04,05,14,32,15.00
2009,04,05,14,33,15.00
2009,04,05,14,34,15.00
2009,04,05,14,35,15.00
2009,04,05,14,36,15.00
2009,04,05,14,37,15.00
2009,04,05,14,38,15.10
2009,04,05,14,39,15.20
2009,04,05,14,40,15.30
2009,04,05,14,41,15.30
2009,04,05,14,42,15.50
2009,04,05,14,43,15.60
2009,04,05,14,44,15.70
2009,04,05,14,45,15.80
2009,04,05,14,46,15.80
2009,04,05,14,47,15.80
2009,04,05,14,48,15.80
2009,04,05,14,49,15.70
2009,04,05,14,50,15.70
2009,04,05,14,51,15.60
2009,04,05,14,52,15.60
2009,04,05,14,53,15.60
2009,04,05,14,54,15.60
2009,04,05,14,55,15.60
2009,04,05,14,56,15.60
2009,04,05,14,57,15.60
2009,04,05,14,58,15.60
2009,04,05,14,59,15.60
2009,04,05,15,00,15.70
2009,04,05,15,01,15.70
2009,04,05,15,02,15.70
2009,04,05,15,03,15.70
2009,04,05,15,04,15.60
2009,04,05,15,05,15.60
2009,04,05,15,06,15.60
2009,04,05,15,07,15.60
2009,04,05,15,08,15.60
2009,04,05,15,09,15.50
2009,04,05,15,10,15.50
2009,04,05,15,11,15.50
2009,04,05,15,12,15.40
2009,04,05,15,13,15.40
2009,04,05,15,14,15.40
2009,04,05,15,15,15.40
2009,04,05,15,16,15.40
2009,04,05,15,17,15.50
2009,04,05,15,18,15.50
2009,04,05,15,19,15.50
2009,04,05,15,20,15.50
2009,04,05,15,21,15.50
2009,04,05,15,22,15.40
2009,04,05,15,23,15.30
2009,04,05,15,24,15.30
2009,04,05,15,25,15.30
2009,04,05,15,26,15.30
2009,04,05,15,27,15.40
2009,04,05,15,28,15.40
2009,04,05,15,29,15.50
2009,04,05,15,30,15.50
2009,04,05,15,31,15.50
2009,04,05,15,32,15.50
2009,04,05,15,33,15.50
2009,04,05,15,34,15.40
2009,04,05,15,35,15.40
2009,04,05,15,36,15.40
2009,04,05,15,37,15.40
2009,04,05,15,38,15.50
2009,04,05,15,39,15.50
2009,04,05,15,40,15.60
2009,04,05,15,41,15.70
2009,04,05,15,42,15.80
2009,04,05,15,43,15.80
2009,04,05,15,44,15.80
2009,04,05,15,45,15.80
2009,04,05,15,46,15.80
2009,04,05,15,47,15.80
2009,04,05,15,48,15.80
2009,04,05,15,49,15.70
2009,04,05,15,50,15.60
2009,04,05,15,51,15.60
2009,04,05,15,52,15.50
2009,04,05,15,53,15.50
2009,04,05,15,54,15.50
2009,04,05,15,55,15.50
2009,04,05,15,56,15.40
2009,04,05,15,57,15.40
2009,04,05,15,58,15.40
2009,04,05,15,59,15.40
2009,04,05,16,00,15.40
2009,04,05,16,01,15.40
2009,04,05,16,02,15.50
2009,04,05,16,03,15.50
2009,04,05,16,04,15.60
2009,04,05,16,05,15.60
2009,04,05,16,06,15.60
2009,04,05,16,07,15.60
2009,04,05,16,08,15.60
2009,04,05,16,09,15.70
2009,04,05,16,10,15.70
2009,04,05,16,11,15.70
2009,04,05,16,12,15.70
2009,04,05,16,13,15.70
2009,04,05,16,14,15.70
2009,04,05,16,15,15.70
2009,04,05,16,16,15.60
2009,04,05,16,17,15.60
2009,04,05,16,18,15.60
2009,04,05,16,19,15.60
2009,04,05,16,20,15.60
2009,04,05,16,21,15.60
2009,04,05,16,22,15.60
2009,04,05,16,23,15.60
2009,04,05,16,24,15.50
2009,04,05,16,25,15.50
2009,04,05,16,26,15.50
2009,04,05,16,27,15.50
2009,04,05,16,28,15.50
2009,04,05,16,29,15.60
2009,04,05,16,30,15.60
2009,04,05,16,31,15.60
2009,04,05,16,32,15.60
2009,04,05,16,33,15.70
2009,04,05,16,34,15.70
2009,04,05,16,35,15.70
2009,04,05,16,36,15.70
2009,04,05,16,37,15.60
2009,04,05,16,38,15.60
2009,04,05,16,39,15.60
2009,04,05,16,40,15.60
2009,04,05,16,41,15.60
2009,04,05,16,42,15.60
2009,04,05,16,43,15.60
2009,04,05,16,44,15.70
2009,04,05,16,45,15.70
2009,04,05,16,46,15.80
2009,04,05,16,47,15.80
2009,04,05,16,48,15.80
2009,04,05,16,49,15.80
2009,04,05,16,50,15.80
2009,04,05,16,51,15.80
2009,04,05,16,52,15.80
2009,04,05,16,53,15.80
2009,04,05,16,54,15.70
2009,04,05,16,55,15.70
2009,04,05,16,56,15.60
2009,04,05,16,57,15.60
2009,04,05,16,58,15.60
2009,04,05,16,59,15.60
2009,04,05,17,00,15.60
2009,04,05,17,01,15.60
2009,04,05,17,02,15.60
2009,04,05,17,03,15.60
2009,04,05,17,04,15.60
2009,04,05,17,05,15.60
2009,04,05,17,06,15.60
2009,04,05,17,07,15.60
2009,04,05,17,08,15.60
2009,04,05,17,09,15.60
2009,04,05,17,10,15.60
2009,04,05,17,11,15.60
2009,04,05,17,12,15.50
2009,04,05,17,13,15.50
2009,04,05,17,14,15.50
2009,04,05,17,15,15.40
2009,04,05,17,16,15.40
2009,04,05,17,17,15.40
2009,04,05,17,18,15.40
2009,04,05,17,19,15.40
2009,04,05,17,20,15.40
2009,04,05,17,21,15.40
2009,04,05,17,22,15.40
2009,04,05,17,23,15.40
2009,04,05,17,24,15.40
2009,04,05,17,25,15.40
2009,04,05,17,26,15.50
2009,04,05,17,27,15.50
2009,04,05,17,28,15.50
2009,04,05,17,29,15.50
2009,04,05,17,30,15.60
2009,04,05,17,31,15.50
2009,04,05,17,32,15.50
2009,04,05,17,33,15.40
2009,04,05,17,34,15.40
2009,04,05,17,35,15.40
2009,04,05,17,36,15.30
2009,04,05,17,37,15.30
2009,04,05,17,38,15.30
2009,04,05,17,39,15.30
2009,04,05,17,40,15.30
2009,04,05,17,41,15.30
2009,04,05,17,42,15.30